Starlink 31410

operational
NORAD ID: 59179 Int'l Des: 2024-045 Owner: SPXS Country: US Constellation: starlink
LEOCIRCULAR

Starlink 31410について

説明を読み込み中...

リアルタイム位置

3D地球を読み込み中...

次回通過

高度履歴

Altitude vs Time

uPlot chart will show altitude changes over time

軌道要素

1 59179U 24045B 25343.08914771 .00014522 00000-0 53601-3 0 9992
2 59179 42.9967 244.3456 0001865 258.9756 101.0886 15.27590258 99309
Epoch: Dec 9, 2025 • Age: 9 hours

現在のステータス

高度 483.5 km
速度 7.63 km/s
衛星直下点 -4.41°S, 13.95°W
打ち上げ日 Mar 11, 2024
運用期間 1.7 years
タイプ internet

技術仕様

分類 Payload
質量 730.00 kg
乾燥質量 700.00 kg
総質量 730.00 kg
長さ 0.30 m
直径 4.10 m
スパン 29.00 m
形状 Box + pan
製造者 SPXS
バスタイプ Starlink V2M
フェーズステータス In Orbit
所有者/国 SPXS/US

大規模コンステレーション

Loading constellations...